AZU2603 SBKP-SBPA

Flight info

Callsign AZU2603
Flight time N/A
Altitude 36000
Route SOVSI DCT ARTUT UZ38 VUKMO
Aircraft A20N/M-SDE3FGHIRWY/LB1

Departure

Time N/A
Airport Viracopos International Airport (SBKP)

Arrival

Time 2026-04-27 15:09
Airport Porto Alegre-Salgado Filho International Airport (SBPA)
Time Latitude Longitude Altitude Speed Heading
2026-04-27 13:59 -23.66600 -47.35233 20380 ft 395 kts 199°
2026-04-27 14:00 -23.69279 -47.35965 20791 ft 399 kts 200°
2026-04-27 14:00 -23.71985 -47.36699 21196 ft 402 kts 200°
2026-04-27 14:00 -23.74709 -47.37435 21611 ft 405 kts 200°
2026-04-27 14:00 -23.77454 -47.38178 22014 ft 408 kts 200°
2026-04-27 14:01 -23.80221 -47.38931 22428 ft 411 kts 200°
2026-04-27 14:01 -23.82966 -47.39682 22819 ft 414 kts 201°
2026-04-27 14:01 -23.85768 -47.40451 23163 ft 417 kts 201°
2026-04-27 14:01 -23.88598 -47.41229 23541 ft 421 kts 201°
2026-04-27 14:02 -23.91453 -47.42011 23882 ft 425 kts 201°
2026-04-27 14:02 -23.94327 -47.42796 24236 ft 427 kts 201°
2026-04-27 14:02 -23.97221 -47.43584 24582 ft 430 kts 200°
2026-04-27 14:02 -24.00132 -47.44377 24954 ft 433 kts 200°
2026-04-27 14:03 -24.03058 -47.45174 25307 ft 434 kts 200°
2026-04-27 14:03 -24.05959 -47.45964 25634 ft 437 kts 200°
2026-04-27 14:03 -24.08913 -47.46770 25952 ft 439 kts 200°
2026-04-27 14:03 -24.11823 -47.47735 26259 ft 435 kts 207°
2026-04-27 14:04 -24.14659 -47.48907 26559 ft 437 kts 207°
2026-04-27 14:04 -24.17509 -47.50082 26868 ft 438 kts 207°
2026-04-27 14:04 -24.20369 -47.51257 27169 ft 440 kts 207°
2026-04-27 14:04 -24.23249 -47.52436 27445 ft 443 kts 207°
2026-04-27 14:05 -24.26142 -47.53621 27725 ft 445 kts 207°
2026-04-27 14:05 -24.29051 -47.54817 28026 ft 447 kts 207°
2026-04-27 14:05 -24.31932 -47.56001 28311 ft 450 kts 207°
2026-04-27 14:05 -24.34871 -47.57207 28606 ft 452 kts 207°
2026-04-27 14:06 -24.37825 -47.58420 28939 ft 454 kts 207°
2026-04-27 14:06 -24.40783 -47.59642 29207 ft 456 kts 207°
2026-04-27 14:06 -24.43762 -47.60876 29450 ft 459 kts 207°
2026-04-27 14:06 -24.46756 -47.62115 29716 ft 461 kts 207°
2026-04-27 14:07 -24.49765 -47.63354 29968 ft 463 kts 207°
2026-04-27 14:07 -24.52789 -47.64596 30197 ft 465 kts 207°
2026-04-27 14:07 -24.55824 -47.65844 30416 ft 467 kts 207°
2026-04-27 14:07 -24.58826 -47.67083 30637 ft 468 kts 207°
2026-04-27 14:08 -24.61878 -47.68344 30862 ft 470 kts 207°
2026-04-27 14:08 -24.64942 -47.69612 31137 ft 470 kts 207°
2026-04-27 14:08 -24.68002 -47.70876 31472 ft 469 kts 207°
2026-04-27 14:08 -24.71053 -47.72135 31811 ft 468 kts 207°
2026-04-27 14:09 -24.74095 -47.73396 32134 ft 467 kts 208°
2026-04-27 14:09 -24.77131 -47.74659 32454 ft 466 kts 207°
2026-04-27 14:09 -24.80123 -47.75901 32773 ft 466 kts 207°
2026-04-27 14:09 -24.83154 -47.77158 33102 ft 465 kts 207°
2026-04-27 14:10 -24.86174 -47.78411 33418 ft 464 kts 207°
2026-04-27 14:10 -24.89191 -47.79664 33740 ft 463 kts 208°
2026-04-27 14:10 -24.92202 -47.80914 34097 ft 462 kts 208°
2026-04-27 14:10 -24.95205 -47.82157 34408 ft 460 kts 208°
2026-04-27 14:11 -24.98202 -47.83397 34701 ft 459 kts 208°
2026-04-27 14:11 -25.01185 -47.84636 34972 ft 458 kts 208°
2026-04-27 14:11 -25.04159 -47.85879 35241 ft 457 kts 208°
2026-04-27 14:11 -25.07129 -47.87122 35492 ft 456 kts 208°
2026-04-27 14:12 -25.10053 -47.88343 35735 ft 455 kts 208°
2026-04-27 14:12 -25.13015 -47.89579 35954 ft 455 kts 208°
2026-04-27 14:12 -25.15975 -47.90812 36026 ft 454 kts 208°
2026-04-27 14:13 -25.21860 -47.93262 36030 ft 451 kts 209°
2026-04-27 14:13 -25.27717 -47.95712 36030 ft 450 kts 209°
2026-04-27 14:14 -25.33527 -47.98151 36029 ft 450 kts 209°
2026-04-27 14:14 -25.39383 -48.00603 36027 ft 450 kts 209°
2026-04-27 14:15 -25.45232 -48.03061 36058 ft 449 kts 210°
2026-04-27 14:15 -25.51074 -48.05519 36048 ft 449 kts 210°
2026-04-27 14:16 -25.56914 -48.07968 36044 ft 449 kts 210°
2026-04-27 14:16 -25.62660 -48.10497 36038 ft 442 kts 216°
2026-04-27 14:17 -25.67826 -48.13986 36029 ft 433 kts 221°
2026-04-27 14:17 -25.72896 -48.17606 36027 ft 433 kts 221°
2026-04-27 14:18 -25.77965 -48.21224 36048 ft 433 kts 222°
2026-04-27 14:18 -25.83001 -48.24814 36049 ft 433 kts 222°
2026-04-27 14:19 -25.88065 -48.28425 36040 ft 432 kts 222°
2026-04-27 14:19 -25.92269 -48.31428 36040 ft 432 kts 222°
2026-04-27 14:20 -25.98174 -48.35642 36032 ft 431 kts 222°
2026-04-27 14:20 -26.03217 -48.39260 36029 ft 431 kts 222°
2026-04-27 14:21 -26.08223 -48.42857 36050 ft 431 kts 222°
2026-04-27 14:21 -26.12447 -48.45895 36058 ft 431 kts 223°
2026-04-27 14:22 -26.18303 -48.50098 36051 ft 431 kts 223°
2026-04-27 14:22 -26.23332 -48.53714 36047 ft 430 kts 223°
2026-04-27 14:23 -26.28322 -48.57302 36043 ft 430 kts 223°
2026-04-27 14:23 -26.32528 -48.60329 36041 ft 429 kts 223°
2026-04-27 14:24 -26.38343 -48.64533 36066 ft 428 kts 223°
2026-04-27 14:24 -26.43322 -48.68133 36032 ft 424 kts 224°
2026-04-27 14:25 -26.48230 -48.71683 36026 ft 423 kts 224°
2026-04-27 14:25 -26.53142 -48.75289 36020 ft 423 kts 224°
2026-04-27 14:26 -26.58039 -48.78917 36020 ft 423 kts 224°
2026-04-27 14:26 -26.62944 -48.82554 36027 ft 423 kts 224°
2026-04-27 14:27 -26.67825 -48.86163 36046 ft 423 kts 224°
2026-04-27 14:27 -26.72756 -48.89770 36044 ft 424 kts 224°
2026-04-27 14:28 -26.77705 -48.93361 36045 ft 424 kts 224°
2026-04-27 14:28 -26.81809 -48.96351 36038 ft 423 kts 224°
2026-04-27 14:29 -26.87533 -49.00540 36035 ft 423 kts 224°
2026-04-27 14:29 -26.92454 -49.04156 36031 ft 423 kts 224°
2026-04-27 14:30 -26.96545 -49.07161 36032 ft 423 kts 224°
2026-04-27 14:30 -27.01469 -49.10776 36059 ft 423 kts 225°
2026-04-27 14:31 -27.07196 -49.14985 36052 ft 423 kts 224°
2026-04-27 14:31 -27.11322 -49.18022 36050 ft 423 kts 224°
2026-04-27 14:32 -27.16208 -49.21623 36049 ft 423 kts 224°
2026-04-27 14:32 -27.21120 -49.25241 36045 ft 422 kts 224°
2026-04-27 14:33 -27.26032 -49.28872 36044 ft 422 kts 224°
2026-04-27 14:33 -27.30934 -49.32491 36066 ft 419 kts 225°
2026-04-27 14:34 -27.35770 -49.36064 36072 ft 419 kts 226°
2026-04-27 14:34 -27.40641 -49.39678 36061 ft 420 kts 225°
2026-04-27 14:35 -27.45521 -49.43293 36058 ft 420 kts 225°
2026-04-27 14:35 -27.50404 -49.46915 36059 ft 420 kts 225°
2026-04-27 14:36 -27.55248 -49.50517 36061 ft 420 kts 225°
2026-04-27 14:36 -27.60129 -49.54136 36095 ft 420 kts 226°
2026-04-27 14:37 -27.65004 -49.57749 36071 ft 419 kts 226°
2026-04-27 14:37 -27.69872 -49.61369 36073 ft 419 kts 226°
2026-04-27 14:38 -27.74710 -49.64960 36079 ft 419 kts 226°
2026-04-27 14:38 -27.79627 -49.68513 36067 ft 420 kts 225°
2026-04-27 14:39 -27.84592 -49.72014 36073 ft 421 kts 225°
2026-04-27 14:39 -27.89547 -49.75519 36118 ft 419 kts 226°
2026-04-27 14:40 -27.94443 -49.79016 36107 ft 419 kts 226°
2026-04-27 14:40 -27.99357 -49.82538 36096 ft 417 kts 226°
2026-04-27 14:41 -28.04270 -49.86058 36101 ft 418 kts 226°
2026-04-27 14:41 -28.09173 -49.89573 36098 ft 416 kts 226°
2026-04-27 14:42 -28.14037 -49.93067 36090 ft 417 kts 226°
2026-04-27 14:42 -28.18933 -49.96585 36087 ft 416 kts 226°
2026-04-27 14:43 -28.23813 -50.00099 36100 ft 414 kts 226°
2026-04-27 14:43 -28.28675 -50.03603 36090 ft 414 kts 226°
2026-04-27 14:44 -28.33504 -50.07085 36083 ft 414 kts 226°
2026-04-27 14:44 -28.38368 -50.10595 36076 ft 414 kts 226°
2026-04-27 14:45 -28.43230 -50.14104 36071 ft 415 kts 226°
2026-04-27 14:45 -28.48097 -50.17627 35395 ft 418 kts 226°
2026-04-27 14:45 -28.50580 -50.19446 34253 ft 431 kts 227°
2026-04-27 14:46 -28.53086 -50.21279 33362 ft 436 kts 226°
2026-04-27 14:46 -28.55644 -50.23130 32623 ft 435 kts 226°
2026-04-27 14:46 -28.58197 -50.24964 31976 ft 432 kts 226°
2026-04-27 14:46 -28.60733 -50.26787 31369 ft 429 kts 226°
2026-04-27 14:47 -28.63241 -50.28592 30761 ft 425 kts 226°
2026-04-27 14:47 -28.65718 -50.30380 30251 ft 419 kts 226°
2026-04-27 14:47 -28.68169 -50.32156 29644 ft 415 kts 226°
2026-04-27 14:47 -28.70583 -50.33909 29141 ft 408 kts 226°
2026-04-27 14:48 -28.72925 -50.35624 28586 ft 402 kts 227°
2026-04-27 14:48 -28.77389 -50.39271 27474 ft 388 kts 231°
2026-04-27 14:48 -28.79516 -50.41135 26943 ft 384 kts 231°
2026-04-27 14:49 -28.81609 -50.42987 26454 ft 378 kts 231°
2026-04-27 14:49 -28.83679 -50.44805 25929 ft 373 kts 231°
2026-04-27 14:49 -28.85736 -50.46590 25439 ft 369 kts 231°
2026-04-27 14:49 -28.87778 -50.48346 24952 ft 366 kts 230°
2026-04-27 14:50 -28.89802 -50.50080 24475 ft 362 kts 230°
2026-04-27 14:50 -28.91785 -50.51774 23987 ft 360 kts 230°
2026-04-27 14:50 -28.93782 -50.53480 23445 ft 358 kts 230°
2026-04-27 14:50 -28.95770 -50.55177 22909 ft 355 kts 229°
2026-04-27 14:51 -28.97735 -50.56856 22424 ft 351 kts 229°
2026-04-27 14:51 -28.99678 -50.58520 21917 ft 347 kts 229°
2026-04-27 14:51 -29.01600 -50.60172 21418 ft 344 kts 229°
2026-04-27 14:51 -29.03508 -50.61813 20944 ft 342 kts 228°
2026-04-27 14:52 -29.05379 -50.63419 20450 ft 340 kts 227°
2026-04-27 14:52 -29.07267 -50.65037 19971 ft 338 kts 227°
2026-04-27 14:52 -29.09146 -50.66647 19478 ft 336 kts 227°
2026-04-27 14:52 -29.11036 -50.68223 18994 ft 340 kts 221°
2026-04-27 14:53 -29.13231 -50.69359 18516 ft 356 kts 206°
2026-04-27 14:53 -29.15737 -50.69760 18072 ft 369 kts 193°
2026-04-27 14:53 -29.18310 -50.69889 17547 ft 367 kts 193°
2026-04-27 14:53 -29.20844 -50.70010 17155 ft 363 kts 193°
2026-04-27 14:54 -29.23324 -50.70130 16700 ft 361 kts 193°
2026-04-27 14:54 -29.25823 -50.70254 16271 ft 358 kts 193°
2026-04-27 14:54 -29.28299 -50.70382 15823 ft 355 kts 193°
2026-04-27 14:54 -29.30752 -50.70510 15422 ft 352 kts 193°
2026-04-27 14:55 -29.33191 -50.70624 15019 ft 349 kts 192°
2026-04-27 14:55 -29.35612 -50.70729 14646 ft 347 kts 192°
2026-04-27 14:55 -29.38010 -50.70830 14303 ft 343 kts 192°
2026-04-27 14:55 -29.40380 -50.70929 13919 ft 339 kts 193°
2026-04-27 14:56 -29.42730 -50.71028 13441 ft 336 kts 193°
2026-04-27 14:56 -29.45026 -50.71131 13000 ft 334 kts 193°
2026-04-27 14:56 -29.47340 -50.71236 12506 ft 332 kts 193°
2026-04-27 14:56 -29.49647 -50.71342 12050 ft 330 kts 193°
2026-04-27 14:57 -29.51935 -50.71443 11630 ft 328 kts 193°
2026-04-27 14:57 -29.54212 -50.71541 11242 ft 325 kts 192°
2026-04-27 14:57 -29.56461 -50.71633 10846 ft 322 kts 192°
2026-04-27 14:57 -29.58686 -50.71723 10589 ft 315 kts 192°
2026-04-27 14:58 -29.60836 -50.71806 10472 ft 304 kts 193°
2026-04-27 14:58 -29.62896 -50.71885 10270 ft 288 kts 194°
2026-04-27 14:58 -29.64845 -50.71962 9726 ft 281 kts 193°
2026-04-27 14:58 -29.66784 -50.72050 9271 ft 277 kts 193°
2026-04-27 14:59 -29.68709 -50.72143 8960 ft 277 kts 193°
2026-04-27 14:59 -29.70622 -50.72265 8665 ft 272 kts 198°
2026-04-27 14:59 -29.72404 -50.72805 8386 ft 261 kts 212°
2026-04-27 14:59 -29.73934 -50.73817 8101 ft 248 kts 225°
2026-04-27 15:00 -29.75181 -50.75144 7838 ft 243 kts 231°
2026-04-27 15:00 -29.76384 -50.76519 7571 ft 244 kts 231°
2026-04-27 15:00 -29.77595 -50.77894 7320 ft 245 kts 231°
2026-04-27 15:00 -29.78790 -50.79250 7059 ft 244 kts 230°
2026-04-27 15:01 -29.80003 -50.80623 6794 ft 245 kts 230°
2026-04-27 15:01 -29.81222 -50.82007 6525 ft 246 kts 231°
2026-04-27 15:01 -29.82439 -50.83386 6245 ft 245 kts 230°
2026-04-27 15:01 -29.83647 -50.84756 5901 ft 243 kts 229°
2026-04-27 15:02 -29.84850 -50.86121 5613 ft 242 kts 228°
2026-04-27 15:02 -29.86047 -50.87480 5348 ft 241 kts 229°
2026-04-27 15:02 -29.87241 -50.88838 5089 ft 240 kts 229°
2026-04-27 15:02 -29.88412 -50.90167 4828 ft 239 kts 228°
2026-04-27 15:03 -29.89598 -50.91512 4569 ft 238 kts 228°
2026-04-27 15:03 -29.90902 -50.92663 4310 ft 236 kts 214°
2026-04-27 15:03 -29.92405 -50.93404 4062 ft 233 kts 207°
2026-04-27 15:03 -29.93898 -50.94065 3788 ft 225 kts 207°
2026-04-27 15:04 -29.95316 -50.94692 3544 ft 212 kts 208°
2026-04-27 15:04 -29.96660 -50.95289 3333 ft 204 kts 208°
2026-04-27 15:04 -29.97968 -50.95892 3105 ft 200 kts 213°
2026-04-27 15:04 -29.99010 -50.96816 2895 ft 185 kts 235°
2026-04-27 15:05 -29.99617 -50.98027 2718 ft 166 kts 253°
2026-04-27 15:05 -29.99807 -50.99259 2530 ft 148 kts 269°
2026-04-27 15:05 -29.99779 -51.00401 2355 ft 137 kts 271°
2026-04-27 15:05 -29.99757 -51.01476 2211 ft 133 kts 272°
2026-04-27 15:06 -29.99736 -51.02542 2056 ft 131 kts 273°
2026-04-27 15:06 -29.99716 -51.03586 1919 ft 129 kts 274°
2026-04-27 15:06 -29.99695 -51.04612 1783 ft 130 kts 274°
2026-04-27 15:06 -29.99674 -51.05647 1636 ft 129 kts 274°
2026-04-27 15:07 -29.99655 -51.06673 1486 ft 128 kts 274°
2026-04-27 15:07 -29.99638 -51.07697 1315 ft 127 kts 274°
2026-04-27 15:07 -29.99624 -51.08713 1160 ft 126 kts 275°
2026-04-27 15:07 -29.99603 -51.09722 959 ft 126 kts 277°
2026-04-27 15:08 -29.99584 -51.10734 786 ft 126 kts 276°
2026-04-27 15:08 -29.99565 -51.11742 628 ft 126 kts 274°
2026-04-27 15:08 -29.99543 -51.12736 457 ft 126 kts 274°
2026-04-27 15:08 -29.99519 -51.13764 266 ft 128 kts 275°
2026-04-27 15:09 -29.99511 -51.14784 86 ft 125 kts 274°
2026-04-27 15:09 -29.99489 -51.15720 18 ft 99 kts 270°
2026-04-27 15:09 -29.99479 -51.16319 18 ft 50 kts 271°
2026-04-27 15:09 -29.99473 -51.16637 16 ft 30 kts 271°
2026-04-27 15:10 -29.99447 -51.16739 15 ft 9 kts 343°
2026-04-27 15:10 -29.99389 -51.16744 15 ft 9 kts
2026-04-27 15:10 -29.99328 -51.16741 15 ft 9 kts
2026-04-27 15:10 -29.99282 -51.16776 15 ft 9 kts 281°
2026-04-27 15:11 -29.99278 -51.16854 16 ft 11 kts 272°
2026-04-27 15:11 -29.99276 -51.16944 16 ft 12 kts 271°
2026-04-27 15:11 -29.99274 -51.17044 16 ft 13 kts 271°
2026-04-27 15:11 -29.99272 -51.17154 15 ft 14 kts 271°
2026-04-27 15:12 -29.99270 -51.17272 15 ft 15 kts 271°
2026-04-27 15:12 -29.99263 -51.17390 16 ft 13 kts 296°
2026-04-27 15:12 -29.99207 -51.17393 16 ft 8 kts
2026-04-27 15:12 -29.99148 -51.17403 16 ft 10 kts 352°
2026-04-27 15:13 -29.99107 -51.17402 17 ft 1 kts
2026-04-27 15:13 -29.99105 -51.17402 17 ft 0 kts